sat.trackr.live / text

‹ back to catalog

STARLINK-2237

NORAD 48583 · 2021-041AG

PAYLOAD ACTIVE UNKNOWN

§ Identity

Operator
Country
US
Launch date
2021-05-15
Launch site
AFETR
Launch vehicle
Mass (kg)
RCS (m²)

Purposes: comms

External: N2YO · Heavens-Above · Gunter

§ Orbital elements

Epoch: 2026-05-25T00:31:23.323872Z

Period
94.01 min
Inclination
53.1612°
Eccentricity
0.0001423
Mean motion
15.31693678 rev/d
Perigee alt
469.8 km
Apogee alt
471.7 km
Semi-major
6,848.9 km
B*
4.2188e-5
RAAN
153.9650°
Arg perigee
79.5616°
Mean anomaly
280.5545°
Rev number
27,664

§ Raw data

STARLINK-22371 48583U 21041AG  26145.02179773  .00000944  00000+0  42188-4 0  99932 48583  53.1612 153.9650 0001423  79.5616 280.5545 15.31693678276644

JSON: /api/v1/satellites/48583 · /tle

For live sub-satellite position, see the globe view (requires WebGL).

§ Visibility from observer

Set your observer location to see the next 7 days of passes ≥ 10°. The values pass through the URL so the page stays shareable.

No JS? Fill the form by hand. The geolocation button needs JavaScript.